Year,Month,Day,Hour,Minute,Value (Times are PST for temperature in C)
2007,04,05,00,00,6.30
2007,04,05,00,01,6.30
2007,04,05,00,02,6.30
2007,04,05,00,03,6.30
2007,04,05,00,04,6.30
2007,04,05,00,05,6.30
2007,04,05,00,06,6.30
2007,04,05,00,07,6.30
2007,04,05,00,08,6.30
2007,04,05,00,09,6.30
2007,04,05,00,10,6.30
2007,04,05,00,11,6.30
2007,04,05,00,12,6.30
2007,04,05,00,13,6.30
2007,04,05,00,14,6.30
2007,04,05,00,15,6.30
2007,04,05,00,16,6.30
2007,04,05,00,17,6.30
2007,04,05,00,18,6.20
2007,04,05,00,19,6.20
2007,04,05,00,20,6.20
2007,04,05,00,21,6.20
2007,04,05,00,22,6.20
2007,04,05,00,23,6.20
2007,04,05,00,24,6.20
2007,04,05,00,25,6.20
2007,04,05,00,26,6.10
2007,04,05,00,27,6.10
2007,04,05,00,28,6.10
2007,04,05,00,29,6.10
2007,04,05,00,30,6.10
2007,04,05,00,31,6.10
2007,04,05,00,32,6.10
2007,04,05,00,33,6.10
2007,04,05,00,34,6.10
2007,04,05,00,35,6.10
2007,04,05,00,36,6.00
2007,04,05,00,37,6.00
2007,04,05,00,38,6.00
2007,04,05,00,39,6.00
2007,04,05,00,40,6.00
2007,04,05,00,41,6.00
2007,04,05,00,42,6.00
2007,04,05,00,43,6.00
2007,04,05,00,44,6.00
2007,04,05,00,45,6.00
2007,04,05,00,46,6.00
2007,04,05,00,47,6.00
2007,04,05,00,48,6.00
2007,04,05,00,49,6.00
2007,04,05,00,50,6.00
2007,04,05,00,51,6.00
2007,04,05,00,52,5.90
2007,04,05,00,53,5.90
2007,04,05,00,54,5.90
2007,04,05,00,55,5.90
2007,04,05,00,56,5.90
2007,04,05,00,57,5.90
2007,04,05,00,58,5.90
2007,04,05,00,59,5.90
2007,04,05,01,00,5.90
2007,04,05,01,01,5.90
2007,04,05,01,02,5.90
2007,04,05,01,03,5.90
2007,04,05,01,04,5.90
2007,04,05,01,05,5.90
2007,04,05,01,06,5.90
2007,04,05,01,07,5.90
2007,04,05,01,08,5.90
2007,04,05,01,09,5.90
2007,04,05,01,10,5.90
2007,04,05,01,11,5.80
2007,04,05,01,12,5.80
2007,04,05,01,13,5.80
2007,04,05,01,14,5.80
2007,04,05,01,15,5.80
2007,04,05,01,16,5.80
2007,04,05,01,17,5.80
2007,04,05,01,18,5.80
2007,04,05,01,19,5.80
2007,04,05,01,20,5.80
2007,04,05,01,21,5.80
2007,04,05,01,22,5.80
2007,04,05,01,23,5.80
2007,04,05,01,24,5.80
2007,04,05,01,25,5.80
2007,04,05,01,26,5.80
2007,04,05,01,27,5.80
2007,04,05,01,28,5.80
2007,04,05,01,29,5.80
2007,04,05,01,30,5.80
2007,04,05,01,31,5.80
2007,04,05,01,32,5.80
2007,04,05,01,33,5.80
2007,04,05,01,34,5.80
2007,04,05,01,35,5.80
2007,04,05,01,36,5.80
2007,04,05,01,37,5.80
2007,04,05,01,38,5.80
2007,04,05,01,39,5.80
2007,04,05,01,40,5.80
2007,04,05,01,41,5.80
2007,04,05,01,42,5.80
2007,04,05,01,43,5.80
2007,04,05,01,44,5.80
2007,04,05,01,45,5.80
2007,04,05,01,46,5.80
2007,04,05,01,47,5.80
2007,04,05,01,48,5.80
2007,04,05,01,49,5.80
2007,04,05,01,50,5.80
2007,04,05,01,51,5.70
2007,04,05,01,52,5.70
2007,04,05,01,53,5.80
2007,04,05,01,54,5.80
2007,04,05,01,55,5.80
2007,04,05,01,56,5.80
2007,04,05,01,57,5.80
2007,04,05,01,58,5.80
2007,04,05,01,59,5.80
2007,04,05,02,00,5.80
2007,04,05,02,01,5.80
2007,04,05,02,02,5.80
2007,04,05,02,03,5.80
2007,04,05,02,04,5.80
2007,04,05,02,05,5.80
2007,04,05,02,06,5.90
2007,04,05,02,07,5.90
2007,04,05,02,08,5.90
2007,04,05,02,09,5.90
2007,04,05,02,10,5.90
2007,04,05,02,11,5.90
2007,04,05,02,12,5.90
2007,04,05,02,13,5.90
2007,04,05,02,14,5.90
2007,04,05,02,15,5.90
2007,04,05,02,16,5.90
2007,04,05,02,17,5.80
2007,04,05,02,18,5.80
2007,04,05,02,19,5.80
2007,04,05,02,20,5.80
2007,04,05,02,21,5.80
2007,04,05,02,22,5.80
2007,04,05,02,23,5.80
2007,04,05,02,24,5.80
2007,04,05,02,25,5.80
2007,04,05,02,26,5.80
2007,04,05,02,27,5.80
2007,04,05,02,28,5.80
2007,04,05,02,29,5.80
2007,04,05,02,30,5.80
2007,04,05,02,31,5.80
2007,04,05,02,32,5.80
2007,04,05,02,33,5.80
2007,04,05,02,34,5.80
2007,04,05,02,35,5.80
2007,04,05,02,36,5.90
2007,04,05,02,37,5.80
2007,04,05,02,38,5.80
2007,04,05,02,39,5.90
2007,04,05,02,40,5.90
2007,04,05,02,41,5.80
2007,04,05,02,42,5.90
2007,04,05,02,43,5.90
2007,04,05,02,44,5.90
2007,04,05,02,45,5.90
2007,04,05,02,46,5.80
2007,04,05,02,47,5.80
2007,04,05,02,48,5.80
2007,04,05,02,49,5.80
2007,04,05,02,50,5.80
2007,04,05,02,51,5.80
2007,04,05,02,52,5.80
2007,04,05,02,53,5.80
2007,04,05,02,54,5.80
2007,04,05,02,55,5.70
2007,04,05,02,56,5.70
2007,04,05,02,57,5.70
2007,04,05,02,58,5.70
2007,04,05,02,59,5.70
2007,04,05,03,00,5.60
2007,04,05,03,01,5.60
2007,04,05,03,02,5.60
2007,04,05,03,03,5.60
2007,04,05,03,04,5.60
2007,04,05,03,05,5.60
2007,04,05,03,06,5.60
2007,04,05,03,07,5.60
2007,04,05,03,08,5.60
2007,04,05,03,09,5.60
2007,04,05,03,10,5.60
2007,04,05,03,11,5.60
2007,04,05,03,12,5.60
2007,04,05,03,13,5.60
2007,04,05,03,14,5.60
2007,04,05,03,15,5.70
2007,04,05,03,16,5.70
2007,04,05,03,17,5.70
2007,04,05,03,18,5.70
2007,04,05,03,19,5.70
2007,04,05,03,20,5.70
2007,04,05,03,21,5.70
2007,04,05,03,22,5.70
2007,04,05,03,23,5.70
2007,04,05,03,24,5.70
2007,04,05,03,25,5.70
2007,04,05,03,26,5.70
2007,04,05,03,27,5.70
2007,04,05,03,28,5.70
2007,04,05,03,29,5.70
2007,04,05,03,30,5.80
2007,04,05,03,31,5.80
2007,04,05,03,32,5.80
2007,04,05,03,33,5.80
2007,04,05,03,34,5.80
2007,04,05,03,35,5.80
2007,04,05,03,36,5.80
2007,04,05,03,37,5.80
2007,04,05,03,38,5.80
2007,04,05,03,39,5.80
2007,04,05,03,40,5.80
2007,04,05,03,41,5.80
2007,04,05,03,42,5.80
2007,04,05,03,43,5.80
2007,04,05,03,44,5.80
2007,04,05,03,45,5.80
2007,04,05,03,46,5.80
2007,04,05,03,47,5.70
2007,04,05,03,48,5.70
2007,04,05,03,49,5.70
2007,04,05,03,50,5.70
2007,04,05,03,51,5.70
2007,04,05,03,52,5.70
2007,04,05,03,53,5.70
2007,04,05,03,54,5.70
2007,04,05,03,55,5.70
2007,04,05,03,56,5.70
2007,04,05,03,57,5.70
2007,04,05,03,58,5.70
2007,04,05,03,59,5.60
2007,04,05,04,00,5.60
2007,04,05,04,01,5.70
2007,04,05,04,02,5.70
2007,04,05,04,03,5.70
2007,04,05,04,04,5.70
2007,04,05,04,05,5.70
2007,04,05,04,06,5.70
2007,04,05,04,07,5.70
2007,04,05,04,08,5.70
2007,04,05,04,09,5.70
2007,04,05,04,10,5.70
2007,04,05,04,11,5.70
2007,04,05,04,12,5.70
2007,04,05,04,13,5.70
2007,04,05,04,14,5.70
2007,04,05,04,15,5.70
2007,04,05,04,16,5.70
2007,04,05,04,17,5.70
2007,04,05,04,18,5.70
2007,04,05,04,19,5.70
2007,04,05,04,20,5.70
2007,04,05,04,21,5.70
2007,04,05,04,22,5.70
2007,04,05,04,23,5.70
2007,04,05,04,24,5.70
2007,04,05,04,25,5.70
2007,04,05,04,26,5.70
2007,04,05,04,27,5.70
2007,04,05,04,28,5.70
2007,04,05,04,29,5.70
2007,04,05,04,30,5.70
2007,04,05,04,31,5.70
2007,04,05,04,32,5.70
2007,04,05,04,33,5.70
2007,04,05,04,34,5.70
2007,04,05,04,35,5.70
2007,04,05,04,36,5.70
2007,04,05,04,37,5.70
2007,04,05,04,38,5.70
2007,04,05,04,39,5.70
2007,04,05,04,40,5.70
2007,04,05,04,41,5.70
2007,04,05,04,42,5.70
2007,04,05,04,43,5.70
2007,04,05,04,44,5.70
2007,04,05,04,45,5.70
2007,04,05,04,46,5.70
2007,04,05,04,47,5.70
2007,04,05,04,48,5.70
2007,04,05,04,49,5.70
2007,04,05,04,50,5.70
2007,04,05,04,51,5.70
2007,04,05,04,52,5.70
2007,04,05,04,53,5.70
2007,04,05,04,54,5.70
2007,04,05,04,55,5.70
2007,04,05,04,56,5.70
2007,04,05,04,57,5.70
2007,04,05,04,58,5.70
2007,04,05,04,59,5.70
2007,04,05,05,00,5.70
2007,04,05,05,01,5.70
2007,04,05,05,02,5.70
2007,04,05,05,03,5.70
2007,04,05,05,04,5.70
2007,04,05,05,05,5.70
2007,04,05,05,06,5.70
2007,04,05,05,07,5.70
2007,04,05,05,08,5.70
2007,04,05,05,09,5.70
2007,04,05,05,10,5.70
2007,04,05,05,11,5.70
2007,04,05,05,12,5.70
2007,04,05,05,13,5.70
2007,04,05,05,14,5.70
2007,04,05,05,15,5.70
2007,04,05,05,16,5.70
2007,04,05,05,17,5.70
2007,04,05,05,18,5.70
2007,04,05,05,19,5.70
2007,04,05,05,20,5.70
2007,04,05,05,21,5.70
2007,04,05,05,22,5.70
2007,04,05,05,23,5.70
2007,04,05,05,24,5.70
2007,04,05,05,25,5.70
2007,04,05,05,26,5.70
2007,04,05,05,27,5.70
2007,04,05,05,28,5.70
2007,04,05,05,29,5.70
2007,04,05,05,30,5.70
2007,04,05,05,31,5.70
2007,04,05,05,32,5.70
2007,04,05,05,33,5.70
2007,04,05,05,34,5.70
2007,04,05,05,35,5.70
2007,04,05,05,36,5.70
2007,04,05,05,37,5.70
2007,04,05,05,38,5.70
2007,04,05,05,39,5.70
2007,04,05,05,40,5.70
2007,04,05,05,41,5.70
2007,04,05,05,42,5.70
2007,04,05,05,43,5.70
2007,04,05,05,44,5.70
2007,04,05,05,45,5.70
2007,04,05,05,46,5.70
2007,04,05,05,47,5.70
2007,04,05,05,48,5.70
2007,04,05,05,49,5.70
2007,04,05,05,50,5.70
2007,04,05,05,51,5.70
2007,04,05,05,52,5.70
2007,04,05,05,53,5.70
2007,04,05,05,54,5.70
2007,04,05,05,55,5.70
2007,04,05,05,56,5.70
2007,04,05,05,57,5.70
2007,04,05,05,58,5.70
2007,04,05,05,59,5.70
2007,04,05,06,00,5.70
2007,04,05,06,01,5.70
2007,04,05,06,02,5.70
2007,04,05,06,03,5.70
2007,04,05,06,04,5.70
2007,04,05,06,05,5.80
2007,04,05,06,06,5.80
2007,04,05,06,07,5.80
2007,04,05,06,08,5.70
2007,04,05,06,09,5.80
2007,04,05,06,10,5.70
2007,04,05,06,11,5.80
2007,04,05,06,12,5.80
2007,04,05,06,13,5.80
2007,04,05,06,14,5.80
2007,04,05,06,15,5.80
2007,04,05,06,16,5.80
2007,04,05,06,17,5.80
2007,04,05,06,18,5.80
2007,04,05,06,19,5.80
2007,04,05,06,20,5.80
2007,04,05,06,21,5.80
2007,04,05,06,22,5.80
2007,04,05,06,23,5.80
2007,04,05,06,24,5.80
2007,04,05,06,25,5.80
2007,04,05,06,26,5.80
2007,04,05,06,27,5.80
2007,04,05,06,28,5.80
2007,04,05,06,29,5.80
2007,04,05,06,30,5.80
2007,04,05,06,31,5.80
2007,04,05,06,32,5.80
2007,04,05,06,33,5.80
2007,04,05,06,34,5.80
2007,04,05,06,35,5.80
2007,04,05,06,36,5.80
2007,04,05,06,37,5.80
2007,04,05,06,38,5.80
2007,04,05,06,39,5.80
2007,04,05,06,40,5.80
2007,04,05,06,41,5.80
2007,04,05,06,42,5.80
2007,04,05,06,43,5.80
2007,04,05,06,44,5.80
2007,04,05,06,45,5.80
2007,04,05,06,46,5.80
2007,04,05,06,47,5.80
2007,04,05,06,48,5.80
2007,04,05,06,49,5.80
2007,04,05,06,50,5.80
2007,04,05,06,51,5.80
2007,04,05,06,52,5.80
2007,04,05,06,53,5.80
2007,04,05,06,54,5.80
2007,04,05,06,55,5.80
2007,04,05,06,56,5.80
2007,04,05,06,57,5.80
2007,04,05,06,58,5.80
2007,04,05,06,59,5.80
2007,04,05,07,00,5.80
2007,04,05,07,01,5.80
2007,04,05,07,02,5.80
2007,04,05,07,03,5.80
2007,04,05,07,04,5.80
2007,04,05,07,05,5.80
2007,04,05,07,06,5.80
2007,04,05,07,07,5.80
2007,04,05,07,08,5.80
2007,04,05,07,09,5.80
2007,04,05,07,10,5.80
2007,04,05,07,11,5.80
2007,04,05,07,12,5.80
2007,04,05,07,13,5.80
2007,04,05,07,14,5.80
2007,04,05,07,15,5.80
2007,04,05,07,16,5.80
2007,04,05,07,17,5.80
2007,04,05,07,18,5.80
2007,04,05,07,19,5.80
2007,04,05,07,20,5.80
2007,04,05,07,21,5.80
2007,04,05,07,22,5.80
2007,04,05,07,23,5.80
2007,04,05,07,24,5.80
2007,04,05,07,25,5.90
2007,04,05,07,26,5.80
2007,04,05,07,27,5.90
2007,04,05,07,28,5.90
2007,04,05,07,29,5.90
2007,04,05,07,30,5.90
2007,04,05,07,31,5.90
2007,04,05,07,32,5.90
2007,04,05,07,33,5.90
2007,04,05,07,34,5.90
2007,04,05,07,35,5.90
2007,04,05,07,36,5.90
2007,04,05,07,37,5.90
2007,04,05,07,38,5.90
2007,04,05,07,39,5.90
2007,04,05,07,40,5.90
2007,04,05,07,41,5.90
2007,04,05,07,42,5.90
2007,04,05,07,43,5.90
2007,04,05,07,44,5.90
2007,04,05,07,45,5.90
2007,04,05,07,46,5.90
2007,04,05,07,47,5.90
2007,04,05,07,48,5.90
2007,04,05,07,49,5.90
2007,04,05,07,50,5.90
2007,04,05,07,51,5.90
2007,04,05,07,52,5.90
2007,04,05,07,53,5.90
2007,04,05,07,54,5.90
2007,04,05,07,55,6.00
2007,04,05,07,56,6.00
2007,04,05,07,57,6.00
2007,04,05,07,58,6.00
2007,04,05,07,59,6.00
2007,04,05,08,00,6.00
2007,04,05,08,01,6.10
2007,04,05,08,02,6.10
2007,04,05,08,03,6.10
2007,04,05,08,04,6.10
2007,04,05,08,05,6.10
2007,04,05,08,06,6.10
2007,04,05,08,07,6.10
2007,04,05,08,08,6.10
2007,04,05,08,09,6.10
2007,04,05,08,10,6.10
2007,04,05,08,11,6.20
2007,04,05,08,12,6.20
2007,04,05,08,13,6.20
2007,04,05,08,14,6.20
2007,04,05,08,15,6.20
2007,04,05,08,16,6.20
2007,04,05,08,17,6.20
2007,04,05,08,18,6.20
2007,04,05,08,19,6.30
2007,04,05,08,20,6.30
2007,04,05,08,21,6.30
2007,04,05,08,22,6.30
2007,04,05,08,23,6.30
2007,04,05,08,24,6.30
2007,04,05,08,25,6.30
2007,04,05,08,26,6.30
2007,04,05,08,27,6.30
2007,04,05,08,28,6.30
2007,04,05,08,29,6.30
2007,04,05,08,30,6.30
2007,04,05,08,31,6.30
2007,04,05,08,32,6.30
2007,04,05,08,33,6.30
2007,04,05,08,34,6.40
2007,04,05,08,35,6.40
2007,04,05,08,36,6.40
2007,04,05,08,37,6.40
2007,04,05,08,38,6.40
2007,04,05,08,39,6.50
2007,04,05,08,40,6.50
2007,04,05,08,41,6.50
2007,04,05,08,42,6.50
2007,04,05,08,43,6.50
2007,04,05,08,44,6.50
2007,04,05,08,45,6.50
2007,04,05,08,46,6.50
2007,04,05,08,47,6.50
2007,04,05,08,48,6.50
2007,04,05,08,49,6.50
2007,04,05,08,50,6.50
2007,04,05,08,51,6.50
2007,04,05,08,52,6.60
2007,04,05,08,53,6.60
2007,04,05,08,54,6.60
2007,04,05,08,55,6.60
2007,04,05,08,56,6.60
2007,04,05,08,57,6.60
2007,04,05,08,58,6.60
2007,04,05,08,59,6.60
2007,04,05,09,00,6.60
2007,04,05,09,01,6.60
2007,04,05,09,02,6.60
2007,04,05,09,03,6.60
2007,04,05,09,04,6.60
2007,04,05,09,05,6.70
2007,04,05,09,06,6.70
2007,04,05,09,07,6.70
2007,04,05,09,08,6.70
2007,04,05,09,09,6.80
2007,04,05,09,10,6.80
2007,04,05,09,11,6.80
2007,04,05,09,12,6.90
2007,04,05,09,13,6.90
2007,04,05,09,14,7.00
2007,04,05,09,15,7.00
2007,04,05,09,16,7.00
2007,04,05,09,17,7.10
2007,04,05,09,18,7.10
2007,04,05,09,19,7.10
2007,04,05,09,20,7.10
2007,04,05,09,21,7.10
2007,04,05,09,22,7.10
2007,04,05,09,23,7.10
2007,04,05,09,24,7.20
2007,04,05,09,25,7.20
2007,04,05,09,26,7.20
2007,04,05,09,27,7.20
2007,04,05,09,28,7.30
2007,04,05,09,29,7.30
2007,04,05,09,30,7.40
2007,04,05,09,31,7.40
2007,04,05,09,32,7.50
2007,04,05,09,33,7.60
2007,04,05,09,34,7.70
2007,04,05,09,35,7.80
2007,04,05,09,36,7.80
2007,04,05,09,37,7.90
2007,04,05,09,38,8.00
2007,04,05,09,39,8.10
2007,04,05,09,40,8.20
2007,04,05,09,41,8.30
2007,04,05,09,42,8.40
2007,04,05,09,43,8.50
2007,04,05,09,44,8.60
2007,04,05,09,45,8.70
2007,04,05,09,46,8.80
2007,04,05,09,47,9.00
2007,04,05,09,48,9.10
2007,04,05,09,49,9.20
2007,04,05,09,50,9.40
2007,04,05,09,51,9.50
2007,04,05,09,52,9.60
2007,04,05,09,53,9.70
2007,04,05,09,54,9.70
2007,04,05,09,55,9.70
2007,04,05,09,56,9.70
2007,04,05,09,57,9.70
2007,04,05,09,58,9.70
2007,04,05,09,59,9.70
2007,04,05,10,00,9.70
2007,04,05,10,01,9.70
2007,04,05,10,02,9.70
2007,04,05,10,03,9.70
2007,04,05,10,04,9.70
2007,04,05,10,05,9.70
2007,04,05,10,06,9.70
2007,04,05,10,07,9.70
2007,04,05,10,08,9.70
2007,04,05,10,09,9.70
2007,04,05,10,10,9.70
2007,04,05,10,11,9.70
2007,04,05,10,12,9.70
2007,04,05,10,13,9.70
2007,04,05,10,14,9.70
2007,04,05,10,15,9.70
2007,04,05,10,16,9.80
2007,04,05,10,17,9.80
2007,04,05,10,18,9.80
2007,04,05,10,19,9.90
2007,04,05,10,20,10.00
2007,04,05,10,21,10.00
2007,04,05,10,22,10.10
2007,04,05,10,23,10.20
2007,04,05,10,24,10.20
2007,04,05,10,25,10.30
2007,04,05,10,26,10.40
2007,04,05,10,27,10.50
2007,04,05,10,28,10.60
2007,04,05,10,29,10.70
2007,04,05,10,30,10.70
2007,04,05,10,31,10.70
2007,04,05,10,32,10.70
2007,04,05,10,33,10.70
2007,04,05,10,34,10.70
2007,04,05,10,35,10.70
2007,04,05,10,36,10.70
2007,04,05,10,37,10.70
2007,04,05,10,38,10.80
2007,04,05,10,39,10.80
2007,04,05,10,40,10.90
2007,04,05,10,41,10.90
2007,04,05,10,42,11.00
2007,04,05,10,43,11.10
2007,04,05,10,44,11.10
2007,04,05,10,45,11.20
2007,04,05,10,46,11.20
2007,04,05,10,47,11.30
2007,04,05,10,48,11.40
2007,04,05,10,49,11.40
2007,04,05,10,50,11.60
2007,04,05,10,51,11.60
2007,04,05,10,52,11.70
2007,04,05,10,53,11.80
2007,04,05,10,54,11.90
2007,04,05,10,55,12.00
2007,04,05,10,56,12.10
2007,04,05,10,57,12.20
2007,04,05,10,58,12.30
2007,04,05,10,59,12.30
2007,04,05,11,00,12.30
2007,04,05,11,01,12.40
2007,04,05,11,02,12.30
2007,04,05,11,03,12.30
2007,04,05,11,04,12.20
2007,04,05,11,05,12.10
2007,04,05,11,06,12.00
2007,04,05,11,07,12.00
2007,04,05,11,08,11.90
2007,04,05,11,09,11.90
2007,04,05,11,10,11.90
2007,04,05,11,11,12.00
2007,04,05,11,12,12.10
2007,04,05,11,13,12.20
2007,04,05,11,14,12.30
2007,04,05,11,15,12.30
2007,04,05,11,16,12.40
2007,04,05,11,17,12.60
2007,04,05,11,18,12.70
2007,04,05,11,19,12.80
2007,04,05,11,20,12.90
2007,04,05,11,21,13.00
2007,04,05,11,22,13.10
2007,04,05,11,23,13.20
2007,04,05,11,24,13.20
2007,04,05,11,25,13.30
2007,04,05,11,26,13.30
2007,04,05,11,27,13.40
2007,04,05,11,28,13.40
2007,04,05,11,29,13.50
2007,04,05,11,30,13.50
2007,04,05,11,31,13.50
2007,04,05,11,32,13.60
2007,04,05,11,33,13.60
2007,04,05,11,34,13.70
2007,04,05,11,35,13.80
2007,04,05,11,36,13.80
2007,04,05,11,37,13.90
2007,04,05,11,38,14.00
2007,04,05,11,39,14.10
2007,04,05,11,40,14.10
2007,04,05,11,41,14.20
2007,04,05,11,42,14.30
2007,04,05,11,43,14.30
2007,04,05,11,44,14.30
2007,04,05,11,45,14.30
2007,04,05,11,46,14.30
2007,04,05,11,47,14.30
2007,04,05,11,48,14.20
2007,04,05,11,49,14.20
2007,04,05,11,50,14.10
2007,04,05,11,51,14.10
2007,04,05,11,52,14.10
2007,04,05,11,53,14.00
2007,04,05,11,54,13.90
2007,04,05,11,55,13.80
2007,04,05,11,56,13.80
2007,04,05,11,57,13.70
2007,04,05,11,58,13.80
2007,04,05,11,59,13.80
2007,04,05,12,00,13.80
2007,04,05,12,01,13.80
2007,04,05,12,02,13.90
2007,04,05,12,03,13.90
2007,04,05,12,04,13.90
2007,04,05,12,05,14.00
2007,04,05,12,06,14.00
2007,04,05,12,07,14.00
2007,04,05,12,08,13.90
2007,04,05,12,09,13.90
2007,04,05,12,10,13.90
2007,04,05,12,11,13.90
2007,04,05,12,12,13.90
2007,04,05,12,13,13.90
2007,04,05,12,14,13.90
2007,04,05,12,15,13.90
2007,04,05,12,16,13.90
2007,04,05,12,17,14.00
2007,04,05,12,18,14.00
2007,04,05,12,19,14.00
2007,04,05,12,20,14.00
2007,04,05,12,21,14.00
2007,04,05,12,22,14.00
2007,04,05,12,23,14.10
2007,04,05,12,24,14.10
2007,04,05,12,25,14.10
2007,04,05,12,26,14.20
2007,04,05,12,27,14.20
2007,04,05,12,28,14.30
2007,04,05,12,29,14.30
2007,04,05,12,30,14.40
2007,04,05,12,31,14.40
2007,04,05,12,32,14.50
2007,04,05,12,33,14.50
2007,04,05,12,34,14.60
2007,04,05,12,35,14.60
2007,04,05,12,36,14.70
2007,04,05,12,37,14.70
2007,04,05,12,38,14.80
2007,04,05,12,39,14.80
2007,04,05,12,40,14.90
2007,04,05,12,41,14.80
2007,04,05,12,42,14.80
2007,04,05,12,43,14.80
2007,04,05,12,44,14.80
2007,04,05,12,45,14.80
2007,04,05,12,46,14.80
2007,04,05,12,47,14.80
2007,04,05,12,48,14.80
2007,04,05,12,49,14.80
2007,04,05,12,50,14.80
2007,04,05,12,51,14.80
2007,04,05,12,52,14.90
2007,04,05,12,53,14.90
2007,04,05,12,54,14.90
2007,04,05,12,55,15.00
2007,04,05,12,56,15.00
2007,04,05,12,57,15.00
2007,04,05,12,58,15.00
2007,04,05,12,59,15.00
2007,04,05,13,00,15.00
2007,04,05,13,01,15.00
2007,04,05,13,02,15.00
2007,04,05,13,03,15.00
2007,04,05,13,04,15.00
2007,04,05,13,05,15.00
2007,04,05,13,06,15.00
2007,04,05,13,07,15.00
2007,04,05,13,08,15.00
2007,04,05,13,09,15.00
2007,04,05,13,10,15.00
2007,04,05,13,11,15.00
2007,04,05,13,12,15.00
2007,04,05,13,13,15.00
2007,04,05,13,14,15.00
2007,04,05,13,15,15.00
2007,04,05,13,16,15.00
2007,04,05,13,17,15.10
2007,04,05,13,18,15.20
2007,04,05,13,19,15.20
2007,04,05,13,20,15.20
2007,04,05,13,21,15.20
2007,04,05,13,22,15.20
2007,04,05,13,23,15.20
2007,04,05,13,24,15.30
2007,04,05,13,25,15.20
2007,04,05,13,26,15.10
2007,04,05,13,27,15.00
2007,04,05,13,28,15.00
2007,04,05,13,29,15.00
2007,04,05,13,30,15.00
2007,04,05,13,31,15.00
2007,04,05,13,32,15.00
2007,04,05,13,33,15.00
2007,04,05,13,34,15.00
2007,04,05,13,35,15.00
2007,04,05,13,36,15.00
2007,04,05,13,37,15.10
2007,04,05,13,38,15.10
2007,04,05,13,39,15.20
2007,04,05,13,40,15.20
2007,04,05,13,41,15.10
2007,04,05,13,42,15.10
2007,04,05,13,43,15.10
2007,04,05,13,44,15.20
2007,04,05,13,45,15.20
2007,04,05,13,46,15.20
2007,04,05,13,47,15.20
2007,04,05,13,48,15.20
2007,04,05,13,49,15.20
2007,04,05,13,50,15.20
2007,04,05,13,51,15.20
2007,04,05,13,52,15.20
2007,04,05,13,53,15.20
2007,04,05,13,54,15.20
2007,04,05,13,55,15.30
2007,04,05,13,56,15.30
2007,04,05,13,57,15.20
2007,04,05,13,58,15.20
2007,04,05,13,59,15.20
2007,04,05,14,00,15.20
2007,04,05,14,01,15.20
2007,04,05,14,02,15.20
2007,04,05,14,03,15.10
2007,04,05,14,04,15.10
2007,04,05,14,05,15.10
2007,04,05,14,06,15.00
2007,04,05,14,07,15.00
2007,04,05,14,08,15.00
2007,04,05,14,09,15.00
2007,04,05,14,10,15.00
2007,04,05,14,11,15.00
2007,04,05,14,12,15.00
2007,04,05,14,13,15.00
2007,04,05,14,14,15.00
2007,04,05,14,15,15.00
2007,04,05,14,16,15.00
2007,04,05,14,17,15.00
2007,04,05,14,18,15.00
2007,04,05,14,19,15.00
2007,04,05,14,20,15.10
2007,04,05,14,21,15.00
2007,04,05,14,22,15.00
2007,04,05,14,23,15.00
2007,04,05,14,24,15.00
2007,04,05,14,25,15.00
2007,04,05,14,26,15.00
2007,04,05,14,27,15.00
2007,04,05,14,28,15.00
2007,04,05,14,29,15.10
2007,04,05,14,30,15.20
2007,04,05,14,31,15.30
2007,04,05,14,32,15.30
2007,04,05,14,33,15.40
2007,04,05,14,34,15.40
2007,04,05,14,35,15.30
2007,04,05,14,36,15.30
2007,04,05,14,37,15.30
2007,04,05,14,38,15.30
2007,04,05,14,39,15.30
2007,04,05,14,40,15.20
2007,04,05,14,41,15.10
2007,04,05,14,42,15.00
2007,04,05,14,43,15.00
2007,04,05,14,44,15.00
2007,04,05,14,45,15.00
2007,04,05,14,46,15.00
2007,04,05,14,47,15.00
2007,04,05,14,48,15.00
2007,04,05,14,49,15.00
2007,04,05,14,50,15.00
2007,04,05,14,51,15.10
2007,04,05,14,52,15.20
2007,04,05,14,53,15.20
2007,04,05,14,54,15.20
2007,04,05,14,55,15.20
2007,04,05,14,56,15.20
2007,04,05,14,57,15.20
2007,04,05,14,58,15.20
2007,04,05,14,59,15.30
2007,04,05,15,00,15.30
2007,04,05,15,01,15.40
2007,04,05,15,02,15.40
2007,04,05,15,03,15.50
2007,04,05,15,04,15.50
2007,04,05,15,05,15.50
2007,04,05,15,06,15.50
2007,04,05,15,07,15.40
2007,04,05,15,08,15.40
2007,04,05,15,09,15.40
2007,04,05,15,10,15.50
2007,04,05,15,11,15.50
2007,04,05,15,12,15.60
2007,04,05,15,13,15.60
2007,04,05,15,14,15.70
2007,04,05,15,15,15.70
2007,04,05,15,16,15.80
2007,04,05,15,17,15.80
2007,04,05,15,18,15.90
2007,04,05,15,19,15.90
2007,04,05,15,20,16.00
2007,04,05,15,21,16.00
2007,04,05,15,22,16.10
2007,04,05,15,23,16.10
2007,04,05,15,24,16.10
2007,04,05,15,25,16.20
2007,04,05,15,26,16.20
2007,04,05,15,27,16.10
2007,04,05,15,28,15.90
2007,04,05,15,29,15.90
2007,04,05,15,30,15.80
2007,04,05,15,31,15.80
2007,04,05,15,32,15.80
2007,04,05,15,33,15.70
2007,04,05,15,34,15.70
2007,04,05,15,35,15.70
2007,04,05,15,36,15.70
2007,04,05,15,37,15.70
2007,04,05,15,38,15.80
2007,04,05,15,39,15.80
2007,04,05,15,40,15.90
2007,04,05,15,41,15.90
2007,04,05,15,42,16.00
2007,04,05,15,43,16.00
2007,04,05,15,44,16.10
2007,04,05,15,45,16.20
2007,04,05,15,46,16.20
2007,04,05,15,47,16.20
2007,04,05,15,48,16.30
2007,04,05,15,49,16.30
2007,04,05,15,50,16.30
2007,04,05,15,51,16.40
2007,04,05,15,52,16.40
2007,04,05,15,53,16.40
2007,04,05,15,54,16.50
2007,04,05,15,55,16.50
2007,04,05,15,56,16.40
2007,04,05,15,57,16.40
2007,04,05,15,58,16.40
2007,04,05,15,59,16.40
2007,04,05,16,00,16.40
2007,04,05,16,01,16.40
2007,04,05,16,02,16.40
2007,04,05,16,03,16.50
2007,04,05,16,04,16.50
2007,04,05,16,05,16.50
2007,04,05,16,06,16.50
2007,04,05,16,07,16.50
2007,04,05,16,08,16.50
2007,04,05,16,09,16.50
2007,04,05,16,10,16.50
2007,04,05,16,11,16.50
2007,04,05,16,12,16.50
2007,04,05,16,13,16.50
2007,04,05,16,14,16.60
2007,04,05,16,15,16.60
2007,04,05,16,16,16.60
2007,04,05,16,17,16.60
2007,04,05,16,18,16.70
2007,04,05,16,19,16.70
2007,04,05,16,20,16.70
2007,04,05,16,21,16.70
2007,04,05,16,22,16.70
2007,04,05,16,23,16.70
2007,04,05,16,24,16.70
2007,04,05,16,25,16.70
2007,04,05,16,26,16.70
2007,04,05,16,27,16.60
2007,04,05,16,28,16.60
2007,04,05,16,29,16.60
2007,04,05,16,30,16.50
2007,04,05,16,31,16.50
2007,04,05,16,32,16.40
2007,04,05,16,33,16.40
2007,04,05,16,34,16.40
2007,04,05,16,35,16.40
2007,04,05,16,36,16.40
2007,04,05,16,37,16.40
2007,04,05,16,38,16.40
2007,04,05,16,39,16.40
2007,04,05,16,40,16.40
2007,04,05,16,41,16.40
2007,04,05,16,42,16.40
2007,04,05,16,43,16.40
2007,04,05,16,44,16.40
2007,04,05,16,45,16.40
2007,04,05,16,46,16.40
2007,04,05,16,47,16.40
2007,04,05,16,48,16.40
2007,04,05,16,49,16.40
2007,04,05,16,50,16.40
2007,04,05,16,51,16.40
2007,04,05,16,52,16.30
2007,04,05,16,53,16.30
2007,04,05,16,54,16.40
2007,04,05,16,55,16.40
2007,04,05,16,56,16.40
2007,04,05,16,57,16.40
2007,04,05,16,58,16.30
2007,04,05,16,59,16.30
2007,04,05,17,00,16.30
2007,04,05,17,01,16.30
2007,04,05,17,02,16.20
2007,04,05,17,03,16.20
2007,04,05,17,04,16.20
2007,04,05,17,05,16.20
2007,04,05,17,06,16.20
2007,04,05,17,07,16.20
2007,04,05,17,08,16.20
2007,04,05,17,09,16.20
2007,04,05,17,10,16.20
2007,04,05,17,11,16.20
2007,04,05,17,12,16.20
2007,04,05,17,13,16.20
2007,04,05,17,14,16.20
2007,04,05,17,15,16.30
2007,04,05,17,16,16.30
2007,04,05,17,17,16.20
2007,04,05,17,18,16.20
2007,04,05,17,19,16.10
2007,04,05,17,20,16.10
2007,04,05,17,21,16.00
2007,04,05,17,22,16.00
2007,04,05,17,23,15.90
2007,04,05,17,24,15.90
2007,04,05,17,25,15.90
2007,04,05,17,26,15.80
2007,04,05,17,27,15.80
2007,04,05,17,28,15.80
2007,04,05,17,29,15.80
2007,04,05,17,30,15.80
2007,04,05,17,31,15.80
2007,04,05,17,32,15.80
2007,04,05,17,33,15.80
2007,04,05,17,34,15.80
2007,04,05,17,35,15.80
2007,04,05,17,36,15.80
2007,04,05,17,37,15.70
2007,04,05,17,38,15.70
2007,04,05,17,39,15.70
2007,04,05,17,40,15.60
2007,04,05,17,41,15.60
2007,04,05,17,42,15.60
2007,04,05,17,43,15.60
2007,04,05,17,44,15.60
2007,04,05,17,45,15.50
2007,04,05,17,46,15.50